Regional Weather Roundup
Issued by NWS

Home | Current Version | Previous Version | Graphics & Text | Print | Product List | Glossary On
Versions: 1 2 3 4 5 6 7 8 9 10 11 12 13 14 15 16 17 18 19 20 21 22 23 24 25 26 27 28 29 30 31 32 33 34 35 36 37 38 39 40 41 42 43 44 45 46 47 48 49 50
000
ASUS43 KFSD 291010
RWRSD

WEATHER ROUNDUP FOR SOUTH DAKOTA
NATIONAL WEATHER SERVICE SIOUX FALLS SD
500 AM CDT WED JUL 29 2015

NOTE: "FAIR" INDICATES FEW OR NO CLOUDS BELOW 12,000 FEET WITH NO
SIGNIFICANT WEATHER AND/OR OBSTRUCTIONS TO VISIBILITY.


SDZ001>005-009-010-012>017-291100-
NORTHWEST AND NORTH CENTRAL SOUTH DAKOTA

CITY           SKY/WX    TMP DP  RH WIND       PRES   REMARKS
BUFFALO          N/A     52  38  58 W14       30.07R
FAITH            N/A     58  37  45 W14       30.11R
MOBRIDGE       CLEAR     61  46  57 W7        30.00R
$$

SDZ012>016-024>037-041>051-057-063-072>074-291100-
SOUTHWEST AND SOUTH CENTRAL SOUTH DAKOTA

CITY           SKY/WX    TMP DP  RH WIND       PRES   REMARKS
RAPID CTY ARPT CLEAR     49  42  77 CALM      30.22R
PIERRE         CLEAR     62  44  51 W13       30.09R
CUSTER         CLEAR     46  33  60 W6        30.33R
ELLSWORTH AFB  CLEAR     55  40  57 W9        30.20R
PHILIP         CLEAR     52  46  80 W6        30.16R
PINE RIDGE     CLEAR     42  39  89 CALM      30.25R
SPEARFISH      FAIR      59  36  41 W8        30.24R
WINNER         FAIR      61  45  55 SW9       30.15R
$$

SDZ004>011-016>023-039-040-291100-
NORTHEAST SOUTH DAKOTA

CITY           SKY/WX    TMP DP  RH WIND       PRES   REMARKS
ABERDEEN       CLEAR     56  49  77 SW9       29.97R
WATERTOWN      CLEAR     61  48  62 W14       29.99R
BROOKINGS      CLEAR     57  48  72 SW9       30.06R
SISSETON         N/A     64  48  56 W18G26    29.89F
$$

SDZ017-020-022-023-036>040-048>070-291100-
SOUTHEAST SOUTH DAKOTA

CITY           SKY/WX    TMP DP  RH WIND       PRES   REMARKS
SIOUX FALLS    CLEAR     61  52  72 W5        30.08R
HURON          CLEAR     62  48  60 W14G22    30.03R
CHAMBERLAIN    CLEAR     58  49  72 W12       30.12R
MITCHELL       CLEAR     61  51  70 SW12      30.08R
YANKTON        CLEAR     61  54  77 SW7       30.10S
$$

ABBREVIATIONS USED IN REMARKS
   TC - TEMPERATURE IN CELSIUS
  WCI - WIND CHILL INDEX
   HX - HEAT INDEX
  VSB - VISIBILITY




USA.gov is the U.S. government's official web portal to all federal, state and local government web resources and services.